Weather History for Point Lay, AK

Change the Weather History Date:

Thursday, August 29, 2013

  Actual Average Record
Temperature  
Mean Temperature 37 °F -  
Max Temperature 41 °F 45 °F 100 °F (2002)
Min Temperature 32 °F 37 °F 26 °F (2008)
Degree Days  
Heating Degree Days 28    
Moisture  
Dew Point 29 °F    
Average Humidity 75    
Maximum Humidity 93    
Minimum Humidity 51    
Precipitation  
Precipitation 0.00 in - - ()
Sea Level Pressure  
Sea Level Pressure 29.84 in    
Wind  
Wind Speed 12 mph (SSW)    
Max Wind Speed 16 mph    
Max Gust Speed 20 mph    
Visibility 10 miles    
Events      
Averages and records for this station are not official NWS values.
T = Trace of Precipitation, MM = Missing Value Source: NWS Daily Summary

Daily Weather History Graph

Daily Weather History Graph

Search for Another Location

Airport:

Trip Planner

Search our weather history database for the weather conditions in past years. The results will help you decide how hot, cold, wet, or windy it might be!

Date:

Astronomy

Aug. 29, 2013 Rise Set
Actual Time 6:58 AM AKDT 10:44 PM AKDT
Civil Twilight 5:41 AM AKDT 11:59 PM AKDT
Nautical Twilight 3:25 AM AKDT 2:20 AM AKDT
Astronomical Twilight Sun does not rise Sun does not rise
Moon 11:12 PM AKDT (8/29) 9:01 PM AKDT (8/29)
Length of Visible Light 18h 18m
Length of Day
15h 45m
Last Quarter, 36% of the Moon is Illuminated
Aug 29
Last Quarter
Sep 5
New
Sep 12
First Quarter
Sep 19
Full
Sep 26
Last Quarter

Hourly Weather History & Observations

Time (AKDT) Temp. Windchill Dew Point Humidity Pressure Visibility Wind Dir Wind Speed Gust Speed Precip Events Conditions
12:10 AM 35.6 °F 26.6 °F 30.2 °F 81% 29.78 in 10.0 mi WNW 13.8 mph - N/A   Overcast
12:24 AM 35.6 °F 26.2 °F 30.2 °F 81% 29.78 in 10.0 mi West 15.0 mph - N/A   Overcast
12:56 AM 34.9 °F 27.1 °F 30.0 °F 82% 29.79 in 10.0 mi WNW 10.4 mph - N/A   Overcast
1:56 AM 34.9 °F 25.3 °F 24.1 °F 65% 29.80 in 10.0 mi West 15.0 mph 19.6 mph N/A   Overcast
2:56 AM 34.0 °F 25.0 °F 23.0 °F 64% 29.81 in 10.0 mi West 12.7 mph - N/A   Partly Cloudy
3:56 AM 34.9 °F 27.1 °F 25.2 °F 68% 29.81 in 10.0 mi West 10.4 mph - N/A   Partly Cloudy
4:56 AM 34.9 °F 25.3 °F 25.2 °F 68% 29.82 in 10.0 mi WNW 15.0 mph - N/A   Overcast
5:56 AM 34.9 °F 27.7 °F 25.2 °F 68% 29.82 in 10.0 mi WNW 9.2 mph - N/A   Overcast
6:56 AM 34.9 °F - 25.2 °F 68% 29.83 in 10.0 mi Calm Calm - N/A   Overcast
7:56 AM 34.9 °F 28.3 °F 29.1 °F 79% 29.83 in 10.0 mi SSW 8.1 mph - N/A   Overcast
8:56 AM 34.0 °F 26.0 °F 31.1 °F 89% 29.84 in 10.0 mi South 10.4 mph - N/A   Mostly Cloudy
9:56 AM 33.8 °F 27.0 °F 30.2 °F 87% 29.83 in 10.0 mi South 8.1 mph - N/A   Mostly Cloudy
10:56 AM 34.9 °F 27.1 °F 30.0 °F 82% 29.85 in 10.0 mi South 10.4 mph - N/A   Mostly Cloudy
11:56 AM 37.9 °F 31.5 °F 28.0 °F 68% 29.86 in 10.0 mi South 9.2 mph - N/A   Clear
12:56 PM 37.4 °F 29.3 °F 30.2 °F 75% 29.85 in 10.0 mi SSW 12.7 mph - N/A   Mostly Cloudy
1:56 PM 38.8 °F 30.0 °F 26.1 °F 60% 29.86 in 10.0 mi SSW 16.1 mph - 0.00 in   Overcast
2:56 PM 39.9 °F 32.1 °F 23.0 °F 51% 29.86 in 10.0 mi South 13.8 mph - N/A   Clear
3:56 PM 39.9 °F 32.9 °F 25.2 °F 56% 29.86 in 10.0 mi South 11.5 mph - N/A   Clear
4:56 PM 41.0 °F 34.3 °F 27.1 °F 58% 29.86 in 10.0 mi South 11.5 mph - N/A   Clear
5:56 PM 38.8 °F 30.4 °F 32.0 °F 76% 29.86 in 10.0 mi SSW 15.0 mph - N/A   Partly Cloudy
6:56 PM 35.6 °F 27.1 °F 32.0 °F 87% 29.85 in 8.0 mi SSW 12.7 mph - N/A   Mostly Cloudy
7:21 PM 35.6 °F 27.1 °F 32.0 °F 87% 29.86 in 7.0 mi SSW 12.7 mph - 0.00 in   Overcast
7:33 PM 35.6 °F 28.0 °F 33.8 °F 93% 29.86 in 10.0 mi SSW 10.4 mph - 0.00 in   Mostly Cloudy
7:56 PM 36.0 °F 28.5 °F 31.1 °F 82% 29.86 in 10.0 mi South 10.4 mph - 0.00 in   Mostly Cloudy
8:56 PM 36.9 °F 30.7 °F 32.0 °F 83% 29.86 in 10.0 mi SSE 8.1 mph - N/A   Clear
9:56 PM 36.0 °F 29.0 °F 30.0 °F 79% 29.85 in 10.0 mi SSE 9.2 mph - N/A   Clear
10:56 PM 34.9 °F 27.7 °F 31.1 °F 86% 29.86 in 10.0 mi SE 9.2 mph - N/A   Clear
11:56 PM 32.9 °F 24.7 °F 30.0 °F 89% 29.85 in 10.0 mi SE 10.4 mph - N/A   Mostly Cloudy